User: anonymous   Login
Location: Stoke Bliss
(52.2667°N, 2.5167°W)
Time: 04:55:04
(UTC+00:00)
Language:

Meteor 1-19 Rocket - Orbit

View from above orbital plane
View from above orbital plane
View from above satellite
View from above satellite

Ground track
Ground track

The orbit data is extracted from the following two-line orbital elements,

1 07493U 74083B   21208.54889907  .00000098  00000-0  49512-4 0  9990
2 07493  81.1619 132.0155 0082102 196.9711 162.8710 14.07593967399686
Epoch (UTC): 27 July 2021 13:10:24
Eccentricity: 0.0082102
inclination: 81.1619°
perigee height: 808 km
apogee height: 927 km
right ascension of ascending node: 132.0155°
argument of perigee: 196.9711°
revolutions per day: 14.07593967
mean anomaly at epoch: 162.8710°
orbit number at epoch: 39968

The dashed part of the orbit path shows where the satellite is in the earth's shadow,  

DLR